Flag Weather past 2 weeks in Erkrath, North Rhine-Westphalia, Germany

Now
55 °F

Sunny.


Feels Like: 52 °F
Forecast: 41 / 51 °F
Wind: 13 mph from South

Location: Duesseldorf

Current Time: Nov 23, 2014 at 12:26:22 PM

Latest Report: Nov 23, 2014 at 11:50 AM


Visibility: 10 mi

Pressure: 30.07 "Hg

Humidity: 72%

Dew point: 46 °F

Location of ErkrathLocation

Historic Weather in Erkrath — Graph

°F

Erkrath temperature yesterday

Maximum temperature yesterday: 52 °F (at 12:50 PM)
Minimum temperature yesterday: 41 °F (at 1:50 AM)
Average temperature yesterday: 47 °F

Past Weeks' High & Low Weather Summary

 TemperatureHumidityPressure
High57 °F (Nov 8, 12:20 PM)100% (Nov 10, 6:20 AM)30.33 "Hg (Nov 10, 6:20 AM)
Low34 °F (Nov 21, 2:50 AM)58% (Nov 21, 1:50 PM)29.50 "Hg (Nov 16, 4:20 PM)
Average49 °F84%29.85 "Hg
* Reported Nov 8 11:20 AM — Nov 23 11:20 AM, Erkrath, Weather by CustomWeather, © 2014

Note: Actual official high and low records may vary slightly from our data, if they occured in-between our weather recording intervals... More about our weather records

Advertising

Erkrath weather history for previous 24 hours

 ConditionsComfort  
Time TempWeatherWind HumidityBarometerVisibility
11:20 AM
Nov 23
54 °FSunny.14 mph72%30.07 "Hg10 mi
10:50 AM54 °FSunny.13 mph72%30.07 "Hg10 mi
10:20 AM52 °FSunny.13 mph77%30.07 "Hg10 mi
9:50 AM52 °FSunny.12 mph72%30.07 "Hg10 mi
9:20 AM50 °FSunny.10 mph82%30.07 "Hg10 mi
8:50 AM50 °FSunny.7 mph82%30.09 "Hg10 mi
8:20 AM50 °FSunny.14 mph82%30.07 "Hg10 mi
7:50 AM50 °FClear.9 mph82%30.07 "Hg10 mi
7:20 AM50 °FClear.13 mph82%30.07 "Hg10 mi
6:50 AM50 °FClear.15 mph82%30.07 "Hg10 mi
6:20 AM50 °FClear.12 mph82%30.07 "Hg10 mi
5:50 AM50 °FClear.13 mph82%30.07 "Hg10 mi
5:20 AM50 °FClear.13 mph82%30.07 "Hg10 mi
4:50 AM50 °FClear.13 mph82%30.07 "Hg10 mi
4:20 AM50 °FClear.12 mph82%30.07 "Hg10 mi
3:50 AM50 °FClear.13 mph82%30.07 "Hg10 mi
3:20 AM50 °FClear.12 mph82%30.09 "Hg10 mi
2:50 AM50 °FClear.13 mph82%30.09 "Hg10 mi
2:20 AM50 °FClear.14 mph82%30.09 "Hg10 mi
1:50 AM50 °FClear.13 mph82%30.09 "Hg10 mi
1:20 AM50 °FClear.12 mph82%30.09 "Hg10 mi
12:50 AM50 °FClear.10 mph82%30.09 "Hg10 mi
12:20 AM50 °FClear.10 mph82%30.09 "Hg10 mi
11:50 PM
Nov 22
50 °FClear.9 mph82%30.09 "Hg10 mi
11:20 PM50 °FClear.12 mph82%30.07 "Hg10 mi
10:50 PM50 °FClear.10 mph82%30.07 "Hg10 mi
10:20 PM50 °FClear.10 mph82%30.09 "Hg10 mi
9:50 PM50 °FClear.12 mph82%30.07 "Hg10 mi
9:20 PM50 °FClear.10 mph82%30.07 "Hg10 mi
8:50 PM50 °FClear.13 mph82%30.07 "Hg10 mi
8:20 PM50 °FClear.10 mph82%30.07 "Hg10 mi
7:50 PM50 °FClear.12 mph82%30.07 "Hg10 mi
7:20 PM50 °FClear.12 mph82%30.07 "Hg10 mi
6:50 PM50 °FClear.12 mph82%30.07 "Hg10 mi
6:20 PM50 °FClear.13 mph82%30.07 "Hg10 mi
5:50 PM50 °FClear.13 mph82%30.07 "Hg10 mi
5:20 PM52 °FClear.12 mph77%30.07 "Hg10 mi
4:50 PM52 °FClear.9 mph77%30.07 "Hg10 mi
4:20 PM52 °FSunny.8 mph77%30.07 "Hg10 mi
3:50 PM52 °FSunny.9 mph77%30.07 "Hg10 mi
3:20 PM52 °FSunny.10 mph77%30.07 "Hg10 mi
2:50 PM52 °FSunny.12 mph77%30.07 "Hg10 mi
2:20 PM52 °FSunny.13 mph77%30.07 "Hg10 mi
1:50 PM50 °FSunny.9 mph82%30.07 "Hg10 mi
1:20 PM50 °FSunny.12 mph76%30.07 "Hg10 mi
12:50 PM52 °FSunny.12 mph72%30.07 "Hg10 mi
12:20 PM50 °FSunny.12 mph76%30.07 "Hg10 mi
Weather by CustomWeather, © 2014

See weather overviewHow to use our weather pages